Marysville, OH

12:01 AM EDT on July 22, 2017 (GMT -0400)
Marysville

Weather History for KMRT - October, 2012

Change the Weather History Date:

Monday, October 22, 2012

  Actual Average (KDLZ) Record (KDLZ)
Temperature  
Mean Temperature 60 °F -  
Max Temperature 76 °F 59 °F 83 °F (1953)
Min Temperature 43 °F 38 °F 20 °F (1974)
Degree Days  
Heating Degree Days 6    
Growing Degree Days 10 (Base 50)    
Moisture  
Dew Point 46 °F    
Average Humidity 64    
Maximum Humidity 86    
Minimum Humidity 38    
Precipitation  
Precipitation 0.00 in - - ()
Sea Level Pressure  
Sea Level Pressure 30.10 in    
Wind  
Wind Speed 5 mph (SSW)    
Max Wind Speed 15 mph    
Max Gust Speed 20 mph    
Visibility 10 miles    
Events      
Averages and records for this station are not official NWS values.
T = Trace of Precipitation, MM = Missing Value Source: NWS Daily Summary

Daily Weather History Graph

Daily Weather History Graph

Search for Another Location

Airport or City:

Trip Planner

Search our weather history database for the weather conditions in past years. The results will help you decide how hot, cold, wet, or windy it might be!

Date:

Astronomy

Oct. 22, 2012 Rise Set
Actual Time 7:52 AM EDT 6:42 PM EDT
Civil Twilight 7:24 AM EDT 7:10 PM EDT
Nautical Twilight 6:52 AM EDT 7:42 PM EDT
Astronomical Twilight 6:21 AM EDT 8:13 PM EDT
Moon 2:50 PM EDT 12:37 AM EDT
Length of Visible Light 11h 46m
Length of Day
10h 50m
First Quarter, 56% of the Moon is Illuminated
Oct 22
First Quarter
Oct 29
Full
Nov 6
Last Quarter
Nov 13
New
Nov 20
First Quarter

Hourly Weather History & Observations

Time (EDT) Temp. Windchill Dew Point Humidity Pressure Visibility Wind Dir Wind Speed Gust Speed Precip Events Conditions
12:34 AM 46.8 °F - 39.6 °F 76% 30.12 in 10.0 mi Calm Calm - N/A   Clear
12:54 AM 47.7 °F - 40.1 °F 75% 30.12 in 10.0 mi Calm Calm - N/A   Clear
1:15 AM 47.3 °F - 40.1 °F 76% 30.12 in 10.0 mi Calm Calm - N/A   Clear
1:54 AM 46.0 °F 44.8 °F 40.3 °F 80% 30.12 in 10.0 mi South 3.5 mph - N/A   Clear
2:14 AM 45.5 °F 44.2 °F 39.9 °F 81% 30.12 in 10.0 mi SSW 3.5 mph - N/A   Clear
2:34 AM 46.2 °F 45.0 °F 40.1 °F 79% 30.12 in 10.0 mi South 3.5 mph - N/A   Clear
2:54 AM 45.1 °F - 39.7 °F 81% 30.12 in 10.0 mi Calm Calm - N/A   Clear
3:14 AM 45.7 °F - 40.1 °F 81% 30.12 in 10.0 mi Calm Calm - N/A   Clear
3:34 AM 44.6 °F 43.1 °F 39.4 °F 82% 30.12 in 10.0 mi South 3.5 mph - N/A   Clear
3:54 AM 44.2 °F 42.7 °F 39.2 °F 82% 30.12 in 10.0 mi SSW 3.5 mph - N/A   Clear
4:14 AM 43.3 °F - 39.4 °F 86% 30.12 in 10.0 mi Calm Calm - N/A   Clear
4:54 AM 45.5 °F 44.2 °F 40.1 °F 81% 30.12 in 10.0 mi South 3.5 mph - N/A   Clear
5:14 AM 44.8 °F 43.3 °F 39.9 °F 83% 30.12 in 10.0 mi SSW 3.5 mph - N/A   Clear
5:34 AM 44.8 °F 43.3 °F 40.1 °F 84% 30.12 in 10.0 mi South 3.5 mph - N/A   Clear
5:54 AM 45.7 °F - 39.9 °F 80% 30.12 in 10.0 mi Calm Calm - N/A   Clear
6:14 AM 45.5 °F - 40.1 °F 81% 30.13 in 10.0 mi Calm Calm - N/A   Clear
6:34 AM 45.3 °F 43.0 °F 39.7 °F 81% 30.13 in 10.0 mi South 4.6 mph - N/A   Mostly Cloudy
6:54 AM 45.7 °F 43.4 °F 40.5 °F 82% 30.13 in 10.0 mi South 4.6 mph - N/A   Mostly Cloudy
7:15 AM 45.5 °F 44.2 °F 40.5 °F 83% 30.14 in 10.0 mi South 3.5 mph - N/A   Mostly Cloudy
7:34 AM 45.3 °F - 40.3 °F 83% 30.14 in 10.0 mi Calm Calm - N/A   Mostly Cloudy
7:54 AM 46.2 °F 43.3 °F 40.6 °F 81% 30.14 in 10.0 mi SSW 5.8 mph - N/A   Scattered Clouds
8:15 AM 46.8 °F - 40.5 °F 79% 30.14 in 10.0 mi SSW 5.8 mph - N/A   Scattered Clouds
8:34 AM 47.8 °F - 41.0 °F 77% 30.14 in 10.0 mi SSW 5.8 mph - N/A   Mostly Cloudy
8:54 AM 48.9 °F - 41.2 °F 75% 30.15 in 10.0 mi South 8.1 mph - N/A   Overcast
9:15 AM 50.0 °F - 42.3 °F 75% 30.15 in 10.0 mi South 5.8 mph - N/A   Mostly Cloudy
9:34 AM 51.8 °F - 43.0 °F 72% 30.15 in 10.0 mi South 8.1 mph - N/A   Scattered Clouds
9:54 AM 53.6 °F - 43.7 °F 69% 30.15 in 10.0 mi SSW 5.8 mph - N/A   Clear
10:15 AM 55.8 °F - 44.6 °F 66% 30.15 in 10.0 mi South 6.9 mph - N/A   Scattered Clouds
10:34 AM 55.6 °F - 44.4 °F 66% 30.15 in 10.0 mi SSW 8.1 mph - N/A   Overcast
10:54 AM 57.4 °F - 45.0 °F 63% 30.15 in 10.0 mi SSW 4.6 mph - N/A   Overcast
11:15 AM 59.0 °F - 46.4 °F 63% 30.14 in 10.0 mi SSW 8.1 mph - N/A   Overcast
11:34 AM 60.8 °F - 46.8 °F 60% 30.13 in 10.0 mi South 6.9 mph - N/A   Overcast
11:54 AM 62.6 °F - 47.5 °F 58% 30.13 in 10.0 mi SW 6.9 mph - N/A   Scattered Clouds
12:15 PM 64.2 °F - 47.7 °F 55% 30.12 in 10.0 mi SSW 8.1 mph - N/A   Clear
12:34 PM 66.9 °F - 48.6 °F 52% 30.12 in 10.0 mi SW 8.1 mph - N/A   Clear
12:54 PM 68.7 °F - 49.1 °F 50% 30.12 in 10.0 mi SSW 9.2 mph - N/A   Clear
1:14 PM 70.9 °F - 48.9 °F 46% 30.10 in 10.0 mi SSW 8.1 mph - N/A   Scattered Clouds
1:34 PM 72.3 °F - 49.1 °F 44% 30.10 in 10.0 mi SW 10.4 mph - N/A   Scattered Clouds
1:54 PM 74.7 °F - 49.1 °F 40% 30.09 in 10.0 mi South 12.7 mph - N/A   Scattered Clouds
2:14 PM 74.5 °F - 48.2 °F 39% 30.09 in 10.0 mi SSW 10.4 mph - N/A   Clear
2:34 PM 74.8 °F - 48.2 °F 39% 30.09 in 10.0 mi SW 12.7 mph 17.3 mph N/A   Clear
2:55 PM 75.4 °F - 48.2 °F 38% 30.08 in 10.0 mi SW 13.8 mph - N/A   Clear
3:14 PM 75.4 °F - 48.2 °F 38% 30.07 in 10.0 mi SW 13.8 mph - N/A   Clear
3:34 PM 76.1 °F - 48.6 °F 38% 30.07 in 10.0 mi SW 10.4 mph - N/A   Clear
3:55 PM 75.2 °F - 49.8 °F 41% 30.08 in 10.0 mi SW 15.0 mph - N/A   Mostly Cloudy
4:14 PM 74.5 °F - 50.2 °F 42% 30.08 in 10.0 mi WSW 15.0 mph 19.6 mph N/A   Overcast
4:34 PM 74.3 °F - 50.2 °F 43% 30.08 in 10.0 mi WSW 12.7 mph - N/A   Overcast
4:54 PM 73.6 °F - 50.5 °F 44% 30.07 in 10.0 mi WSW 5.8 mph 9.2 mph N/A   Overcast
5:14 PM 73.4 °F - 51.4 °F 46% 30.08 in 10.0 mi SW 6.9 mph - N/A   Overcast
5:34 PM 73.0 °F - 51.6 °F 47% 30.07 in 10.0 mi SW 9.2 mph - N/A   Mostly Cloudy
5:54 PM 72.1 °F - 51.1 °F 47% 30.07 in 10.0 mi WSW 10.4 mph - N/A   Overcast
6:14 PM 70.7 °F - 50.5 °F 49% 30.07 in 10.0 mi WSW 8.1 mph - N/A   Mostly Cloudy
6:34 PM 68.9 °F - 50.5 °F 52% 30.07 in 10.0 mi SW 8.1 mph - N/A   Scattered Clouds
6:54 PM 68.5 °F - 50.2 °F 52% 30.06 in 10.0 mi SSW 9.2 mph - N/A   Clear
7:14 PM 68.0 °F - 50.2 °F 53% 30.05 in 10.0 mi SSW 8.1 mph - N/A   Clear
7:34 PM 67.5 °F - 50.7 °F 55% 30.04 in 10.0 mi South 9.2 mph - N/A   Clear
7:54 PM 67.1 °F - 51.1 °F 56% 30.05 in 10.0 mi SSW 8.1 mph - N/A   Clear
8:14 PM 66.2 °F - 51.3 °F 59% 30.05 in 10.0 mi SSW 8.1 mph - N/A   Clear
8:34 PM 63.1 °F - 51.1 °F 65% 30.06 in 10.0 mi SW 6.9 mph - N/A   Clear
8:54 PM 63.1 °F - 50.9 °F 64% 30.05 in 10.0 mi SW 4.6 mph - N/A   Clear
9:15 PM 60.8 °F - 50.7 °F 69% 30.06 in 10.0 mi SW 5.8 mph - N/A   Clear
9:34 PM 61.0 °F - 50.4 °F 68% 30.06 in 10.0 mi SW 6.9 mph - N/A   Clear
9:54 PM 61.7 °F - 50.0 °F 65% 30.05 in 10.0 mi SW 6.9 mph - N/A   Clear
10:15 PM 62.6 °F - 50.0 °F 63% 30.06 in 10.0 mi SW 8.1 mph - N/A   Mostly Cloudy
10:34 PM 62.4 °F - 50.0 °F 64% 30.05 in 10.0 mi SW 6.9 mph - N/A   Overcast
10:54 PM 63.5 °F - 50.0 °F 61% 30.05 in 10.0 mi SSW 9.2 mph - N/A   Overcast
11:15 PM 63.5 °F - 50.0 °F 61% 30.05 in 10.0 mi SW 8.1 mph - N/A   Mostly Cloudy
11:34 PM 62.2 °F - 50.0 °F 64% 30.05 in 10.0 mi SW 9.2 mph - N/A   Mostly Cloudy
11:54 PM 61.5 °F - 50.4 °F 67% 30.05 in 10.0 mi SW 6.9 mph - N/A   Overcast